Date String (YYYY-MM-DD hh:mm:ss) UTC,Instrument flags,Ambient pressure (hPa),Sample flow (lpm),Bypass flow (lpm),Sample temperature (°C),Ambient temperature (°C),ASC tube jacket temperature (°C),LED temperature (°C),Box temperature (°C),Sample RH (%),Span deviation,Mass concentration (μg/m³),Mass concentration (μg/m³),Mass concentration (μg/m³)
DateTimeUTC,F1_M11,P_M11,Q1_M11,Q2_M11,T1_M11,T2_M11,T3_M11,T4_M11,T5_M11,U1_M11,ZSPAN_M11,X0_M11,X2_M11,X1_M11
2022-06-02 02:00:00,,0829.5,5.00,0.00,29.3,28.4,00.0,38.2,31.2,20.0,0000.0,0005.21,0003.84,0003.68
2022-06-02 02:01:00,,0829.5,5.01,0.00,29.3,28.4,00.0,38.2,31.2,20.0,0000.0,0005.20,0003.83,0003.66
2022-06-02 02:02:00,,0829.5,5.00,0.00,29.3,28.4,00.0,38.2,31.2,20.0,0000.0,0005.14,0003.80,0003.62
2022-06-02 02:03:00,,0829.6,5.00,0.00,29.3,28.4,00.0,38.2,31.2,20.0,0000.0,0005.07,0003.76,0003.58
2022-06-02 02:04:00,,0829.6,5.00,0.00,29.3,28.4,00.0,38.2,31.2,20.0,0000.0,0005.06,0003.76,0003.57
2022-06-02 02:05:00,,0829.6,5.01,0.00,29.4,28.4,00.0,38.2,31.2,19.9,0000.0,0005.00,0003.76,0003.56
2022-06-02 02:06:00,,0829.6,5.00,0.00,29.4,28.4,00.0,38.3,31.2,19.9,0000.0,0005.46,0003.75,0003.56
2022-06-02 02:07:00,,0829.6,5.00,0.00,29.4,28.4,00.0,38.3,31.2,19.9,0000.0,0005.83,0003.74,0003.56
2022-06-02 02:08:00,,0829.6,5.01,0.00,29.4,28.4,00.0,38.3,31.2,19.9,0000.0,0005.77,0003.73,0003.57
2022-06-02 02:09:00,,0829.6,5.00,0.00,29.4,28.4,00.0,38.3,31.2,19.9,0000.0,0005.78,0003.74,0003.57
2022-06-02 02:10:00,,0829.7,5.00,0.00,29.3,28.4,00.0,38.3,31.2,20.0,0000.0,0005.77,0003.74,0003.59
2022-06-02 02:11:00,,0829.7,5.00,0.00,29.3,28.4,00.0,38.3,31.1,20.0,0000.0,0005.72,0003.75,0003.61
2022-06-02 02:12:00,,0829.6,5.00,0.00,29.3,28.3,00.0,38.3,31.1,20.0,0000.0,0005.71,0003.73,0003.62
2022-06-02 02:13:00,,0829.6,4.99,0.00,29.3,28.3,00.0,38.3,31.1,20.0,0000.0,0006.55,0003.75,0003.63
2022-06-02 02:14:00,,0829.6,5.00,0.00,29.3,28.3,00.0,38.3,31.1,20.0,0000.0,0006.62,0003.77,0003.64
2022-06-02 02:15:00,,0829.6,5.00,0.00,29.3,28.3,00.0,38.3,31.1,20.3,0000.0,0006.57,0003.77,0003.65
2022-06-02 02:16:00,,0829.6,4.99,0.00,29.3,28.3,00.0,38.3,31.1,20.5,0000.0,0006.68,0003.81,0003.68
2022-06-02 02:17:00,,0829.6,5.01,0.00,29.3,28.3,00.0,38.3,31.1,20.9,0000.0,0006.59,0003.93,0003.79
2022-06-02 02:18:00,,0829.6,5.01,0.00,29.3,28.3,00.0,38.3,31.1,20.9,0000.0,0006.26,0004.05,0003.90
2022-06-02 02:19:00,,0829.6,5.01,0.00,29.3,28.3,00.0,38.3,31.1,20.9,0000.0,0006.52,0004.16,0003.99
2022-06-02 02:20:00,,0829.6,4.99,0.00,29.3,28.3,00.0,38.3,31.1,20.7,0000.0,0006.70,0004.24,0004.05
2022-06-02 02:21:00,,0829.6,4.99,0.00,29.3,28.3,00.0,38.3,31.1,20.6,0000.0,0006.84,0004.30,0004.11
2022-06-02 02:22:00,,0829.7,5.00,0.00,29.3,28.3,00.0,38.3,31.1,20.6,0000.0,0006.90,0004.35,0004.16
2022-06-02 02:23:00,,0829.7,5.00,0.00,29.3,28.3,00.0,38.3,31.1,20.4,0000.0,0006.94,0004.37,0004.17
2022-06-02 02:24:00,,0829.7,5.00,0.00,29.3,28.3,00.0,38.3,31.1,20.5,0000.0,0006.89,0004.38,0004.19
2022-06-02 02:25:00,,0829.7,5.00,0.00,29.3,28.3,00.0,38.3,31.1,20.8,0000.0,0007.65,0004.42,0004.23
2022-06-02 02:26:00,,0829.7,5.00,0.00,29.3,28.3,00.0,38.3,31.1,20.9,0000.0,0008.30,0004.48,0004.30
2022-06-02 02:27:00,,0829.7,4.99,0.00,29.3,28.3,00.0,38.3,31.1,20.9,0000.0,0008.31,0004.49,0004.31
2022-06-02 02:28:00,,0829.6,4.99,0.00,29.3,28.3,00.0,38.3,31.1,20.7,0000.0,0008.17,0004.39,0004.23
2022-06-02 02:29:00,,0829.7,5.01,0.00,29.3,28.3,00.0,38.3,31.1,20.8,0000.0,0008.05,0004.30,0004.14
2022-06-02 02:30:00,,0829.7,5.00,0.00,29.3,28.3,00.0,38.3,31.1,20.6,0000.0,0007.96,0004.22,0004.08
2022-06-02 02:31:00,,0829.7,5.01,0.00,29.3,28.3,00.0,38.3,31.1,20.6,0000.0,0007.86,0004.13,0004.00
2022-06-02 02:32:00,,0829.7,5.00,0.00,29.3,28.3,00.0,38.3,31.1,20.5,0000.0,0007.82,0004.07,0003.93
2022-06-02 02:33:00,,0829.6,5.00,0.00,29.3,28.3,00.0,38.3,31.1,20.3,0000.0,0007.80,0004.02,0003.87
2022-06-02 02:34:00,,0829.7,5.02,0.00,29.3,28.3,00.0,38.2,31.1,20.4,0000.0,0007.84,0004.00,0003.85
2022-06-02 02:35:00,,0829.7,5.00,0.00,29.3,28.3,00.0,38.2,31.1,20.5,0000.0,0007.35,0003.99,0003.83
2022-06-02 02:36:00,,0829.7,5.00,0.00,29.3,28.3,00.0,38.2,31.1,20.6,0000.0,0006.17,0003.96,0003.80
2022-06-02 02:37:00,,0829.7,4.99,0.00,29.3,28.3,00.0,38.2,31.1,20.6,0000.0,0005.53,0003.95,0003.78
2022-06-02 02:38:00,,0829.7,4.99,0.00,29.3,28.3,00.0,38.2,31.1,20.6,0000.0,0005.60,0003.95,0003.78
2022-06-02 02:39:00,,0829.7,5.00,0.00,29.3,28.3,00.0,38.2,31.1,20.6,0000.0,0005.75,0003.98,0003.80
2022-06-02 02:40:00,,0829.7,5.00,0.00,29.3,28.3,00.0,38.2,31.1,20.4,0000.0,0005.78,0003.99,0003.82
2022-06-02 02:41:00,,0829.7,5.01,0.00,29.3,28.3,00.0,38.2,31.1,20.3,0000.0,0005.78,0004.01,0003.84
2022-06-02 02:42:00,,0829.7,5.00,0.00,29.3,28.3,00.0,38.2,31.1,20.3,0000.0,0005.82,0004.03,0003.86
2022-06-02 02:43:00,,0829.7,4.99,0.00,29.3,28.3,00.0,38.2,31.1,20.2,0000.0,0005.78,0004.03,0003.87
2022-06-02 02:44:00,,0829.8,5.01,0.00,29.3,28.3,00.0,38.2,31.1,20.3,0000.0,0005.66,0004.02,0003.88
2022-06-02 02:45:00,,0829.8,5.00,0.00,29.3,28.3,00.0,38.2,31.1,20.3,0000.0,0005.53,0004.01,0003.89
2022-06-02 02:46:00,,0829.8,5.00,0.00,29.3,28.3,00.0,38.2,31.1,20.3,0000.0,0005.47,0004.01,0003.90
2022-06-02 02:47:00,,0829.8,4.99,0.00,29.3,28.3,00.0,38.2,31.1,20.3,0000.0,0005.42,0004.00,0003.90
2022-06-02 02:48:00,,0829.8,5.01,0.00,29.2,28.3,00.0,38.2,31.1,20.3,0000.0,0005.17,0003.97,0003.88
2022-06-02 02:49:00,,0829.8,5.01,0.00,29.2,28.3,00.0,38.2,31.1,20.4,0000.0,0005.10,0003.95,0003.87
2022-06-02 02:50:00,,0829.8,5.01,0.00,29.2,28.3,00.0,38.2,31.1,20.5,0000.0,0004.98,0003.93,0003.85
2022-06-02 02:51:00,,0829.9,5.01,0.00,29.2,28.3,00.0,38.2,31.1,20.8,0000.0,0004.98,0003.93,0003.85
2022-06-02 02:52:00,,0829.9,5.00,0.00,29.2,28.3,00.0,38.2,31.1,20.8,0000.0,0004.98,0003.92,0003.83
2022-06-02 02:53:00,,0829.9,5.00,0.00,29.2,28.3,00.0,38.2,31.1,20.9,0000.0,0005.07,0003.94,0003.85
2022-06-02 02:54:00,,0829.9,4.99,0.00,29.2,28.3,00.0,38.2,31.1,20.9,0000.0,0005.46,0003.99,0003.89
2022-06-02 02:55:00,,0829.9,5.00,0.00,29.2,28.3,00.0,38.2,31.0,21.0,0000.0,0006.44,0004.08,0003.95
2022-06-02 02:56:00,,0830.0,5.00,0.00,29.2,28.3,00.0,38.2,31.0,21.0,0000.0,0006.67,0004.15,0004.01
2022-06-02 02:57:00,,0829.9,5.00,0.00,29.2,28.3,00.0,38.2,31.0,20.9,0000.0,0006.95,0004.26,0004.09
2022-06-02 02:58:00,,0829.9,5.00,0.00,29.2,28.3,00.0,38.2,31.0,20.9,0000.0,0007.22,0004.40,0004.23
2022-06-02 02:59:00,,0829.9,5.00,0.00,29.2,28.2,00.0,38.2,31.0,20.9,0000.0,0007.42,0004.54,0004.37
